This is the latest recevied weather packets stored in our database for station/object K5DLF-13. If no packets are shown the sender has not sent any weather packets the latest 10 day(s).
| Time | Temp. | Humidity | Pressure | Rain* | Wind** | Luminosity | Snow |
|---|---|---|---|---|---|---|---|
| 1778103894 | 29.44° C | 82% | 1005.9 hPa | 0 mm | - | 229 W/m² | - |
| 1778103595 | 29.44° C | 82% | 1005.8 hPa | 0 mm | - | 320 W/m² | - |
| 1778103294 | 30° C | 83% | 1005.9 hPa | 0 mm | - | 243 W/m² | - |
| 1778102995 | 30° C | 81% | 1005.8 hPa | 0 mm | - | 390 W/m² | - |
| 1778102695 | 30° C | 82% | 1005.8 hPa | 0 mm | - | 378 W/m² | - |
| 1778102394 | 30.56° C | 81% | 1005.7 hPa | 0 mm | - | 269 W/m² | - |
| 1778102095 | 30.56° C | 82% | 1005.7 hPa | 0 mm | - | 329 W/m² | - |
| 1778101794 | 30.56° C | 80% | 1005.7 hPa | 0 mm | - | 443 W/m² | - |
| 1778101495 | 30.56° C | 80% | 1005.7 hPa | 0 mm | - | 381 W/m² | - |
| 1778101195 | 30.56° C | 81% | 1005.7 hPa | 0 mm | - | 566 W/m² | - |
| 1778100895 | 30.56° C | 82% | 1005.7 hPa | 0 mm | - | 622 W/m² | - |
| 1778100595 | 30.56° C | 82% | 1005.7 hPa | 0 mm | - | 659 W/m² | - |
| 1778100295 | 30° C | 85% | 1005.8 hPa | 0 mm | - | 773 W/m² | - |
| 1778099995 | 30° C | 84% | 1005.9 hPa | 0 mm | - | 768 W/m² | - |
| 1778099695 | 30° C | 82% | 1006 hPa | 0 mm | - | 485 W/m² | - |
| 1778099395 | 29.44° C | 85% | 1006.1 hPa | 0 mm | - | 564 W/m² | - |
| 1778099095 | 29.44° C | 85% | 1006.1 hPa | 0 mm | - | 596 W/m² | - |
| 1778098795 | 28.89° C | 86% | 1006.1 hPa | 0 mm | - | 596 W/m² | - |
| 1778098495 | 28.89° C | 87% | 1006.3 hPa | 0 mm | - | 411 W/m² | - |
| 1778098195 | 28.33° C | 87% | 1006.5 hPa | 0 mm | - | 418 W/m² | - |
| 1778097895 | 28.33° C | 86% | 1006.6 hPa | 0 mm | - | 253 W/m² | - |
| 1778097595 | 28.33° C | 86% | 1006.6 hPa | 0 mm | - | 287 W/m² | - |
| 1778097295 | 28.33° C | 86% | 1006.7 hPa | 0 mm | - | 255 W/m² | - |
| 1778096995 | 28.33° C | 86% | 1006.7 hPa | 0 mm | - | 320 W/m² | - |
| 1778096695 | 28.33° C | 85% | 1006.7 hPa | 0 mm | - | 195 W/m² | - |
* Rain latest hour (hover to see other rain measurements)
** Current wind speed in m/s (hover to see current wind gust speed)